SL-14 R/B, 19791

Orbit data source: Space-Track

SL-14 R/B, 19791 is space debris in LEO originally from a launch on Fri, 10 Feb 1989 UTC launched from the Plesetsk Missile And Space Complex (PKMTR). Debris objects in space refer to the collection of defunct objects orbiting the Earth. Examples of debris include non-operational satellites, rocket bodies, and fragments generated from explosions, collisions, or faulty payload assembly.

Loading next visibility...
Identifier
19791, 1989-009G
Orbit
LEO
Country
Flag of CISCIS
Related business
Manufacturer
Yuzhnoe
Mission
Spacecraft
Bus & Motor
S5M, Unknown motor
Mass
1,600 kg wet, 1,600 kg dry
Launch date (UTC)
1989-02-10 (38 years ago)
Launch vehicle
Unknown
Launch site
Plesetsk Missile And Space Complex (PKMTR)
Object type
Payload
Rocket body
Debris
Shape & HBR
Cyl, 1.8 m
Radar Cross Section
7.351 m², Large (>1 m²)

Expand to show TLE details & history
Last TLE update: 6 hours ago

TLE from 6 hours ago
0 SL-14 R/B
1 19791U 89009G   26262.81138985  .00000016  00000-0  32160-4 0  9997
2 19791  82.6087  72.8671 0035653  89.3244 335.4854 12.54882320722427
Epoch: 2026-09-19T19:28Z
TLE epoch observation values (Epoch: 2026-09-19T19:28:24.083Z)
Latitude
63.73603°
Longitude
157.21682°
Altitude
1,429.714 km
Speed
7.164 km/s
True Right ascension
05h 52m 07s
True Declination
63° 36' 40"
Sunlit
Object was in daylight at epoch
Visualization orbit readout
Latitude
Unknown
Longitude
Unknown
Altitude
Unknown
Speed
Unknown
Apparent Right ascension
Unknown
Apparent Declination
Unknown
Sunlit
N/A
Visualization observer readout
Local Sidereal Time
18:22:55
Azimuth
Unknown
Elevation
Unknown
Doppler factor
Unknown
Orbital elements
Apogee altitude
1,469.349 km
Perigee altitude
1,413.591 km
Semi-major axis
7,819.607 km
Eccentricity
0.00357
Inclination
82.6087°
RAAN
72.8671°
Arg. of periapsis
89.3244°
True anomaly
335.31519°
Mean anomaly
335.4854°
Eccentric anomaly
335.40036°
Mean motion
3.13882 °/min
Orbital period
114.69 mins
BSTAR
0.00003216
Loading maneuver chart data...
Computing Atmospheric mass density...
Loading historical data...
Loading historical data...
Loading historical data...
Loading historical data...
Loading historical data...
Loading historical data...
Loading historical data...

Documentation

Showing up to 5 results
|